Hourly Data Report for May 30, 2012

HALIFAX STANFIELD INT'L A
NOVA SCOTIA

44°52'48.060" N
63°30'00.050" W
145.40 m
8202250
71395
YHZ

Download Data

Hourly Data (May 2012)
Hourly Data Report for May 30, 2012
TIME
LST
Temp Definition
°C
Dew Point Definition
°C
Rel Hum Definition
%
Precip. Amount Definition
mm

Wind Dir Definition
10's deg

Wind Spd Definition
km/h
Visibility Definition
km
Stn Press Definition
kPa
Hmdx Definition


Wind Chill Definition


Weather Definition


00:00 7.1 3.2 76   14 20 24.1 99.77     Cloudy
01:00 6.2 4.8 91   13 22 6.4 99.70     Rain Showers, Fog
02:00 5.9 5.1 95   13 24 6.4 99.71     Heavy Rain Showers, Fog
03:00 5.5 4.7 95   14 26 24.1 99.63     Cloudy
04:00 5.7 5.1 96   13 28 24.1 99.51     Cloudy
05:00 5.8 5.0 95   13 32 24.1 99.39     Cloudy
06:00 6.4 5.6 95   13 33 16.1 99.33     Cloudy
07:00 7.4 6.9 97   13 33 3.2 99.32     Drizzle, Fog
08:00 8.0 7.5 97   14 41 4.8 99.21     Drizzle, Fog
09:00 8.3 8.0 98   14 41 2.4 99.12     Drizzle, Fog
10:00 9.1 8.8 98   14 37 3.2 99.12     Drizzle, Fog
11:00 10.0 9.6 97   14 37 2.4 99.00     Drizzle, Fog
12:00 10.4 10.1 98   14 22 1.6 98.96     Drizzle, Fog
13:00 11.0 10.9 99   14 15 1.2 98.90     Drizzle, Fog
14:00 11.4 11.3 99   14 15 1.0 98.85     Drizzle, Fog
15:00 11.6 11.6 100   9 11 0.8 98.83     Drizzle, Fog
16:00 11.7 11.5 99   12 13 0.6 98.80     Fog
17:00 11.5 11.3 99   13 7 0.6 98.83     Drizzle, Fog
18:00 11.1 11.0 99   11 7 0.6 98.89     Drizzle, Fog
19:00 10.7 10.7 100   11 7 0.4 98.92     Drizzle, Fog
20:00 10.0 9.9 99   9 7 0.4 98.96     Fog
21:00 9.2 9.2 100   11 7 0.8 99.01     Fog
22:00 8.9 8.9 100     0 0.4 99.04     Fog
23:00 8.9 8.9 100   9 4 0.2 99.04     Fog

Notes on Data Quality.

Legend

  • E = Estimated
  • M = Missing
  • NA = Not Available*
  • [empty] = Indicates an unobserved value
Date modified: